Weather at Andros Heliport

Public forecast

Using degrees Celsius for public forecast. Weather courtesy of forecast.io.

Closest aviation weather report (METAR) to Andros Heliport

Closest report is Syros Airport, 24.8 nm (46.0 km) S. Retrieved 2022/01/29 07:50 UTC (15 minutes ago):

LGSO 290750Z 09008KT 050V130 9999 SCT020 12/04 Q1019

Closest aviation forecast (TAF) to Andros Heliport

Forecast is more than 12 hours old.

Closest forecast is Mikonos Airport, 30.7 nm (56.8 km) SE. Retrieved 2012/09/27 00:18 UTC (9 years ago):

TAF TAF LGMK 272300Z 2800/2909 36016KT 9999 FEW020